This is the latest recevied weather packets stored in our database for station/object OE-11073. If no packets are shown the sender has not sent any weather packets the latest 10 day(s).
| Time | Temp. | Humidity | Pressure | Rain* | Wind** | Luminosity | Snow |
|---|---|---|---|---|---|---|---|
| 1787969482 | 13.33° C | 89% | - | 0 mm | - | 0 W/m² | - |
| 1787969109 | 13.33° C | 91% | - | 0 mm | - | 0 W/m² | - |
| 1787968510 | 13.33° C | 86% | - | 0 mm | - | 0 W/m² | - |
| 1787967682 | 13.33° C | 89% | - | 0 mm | - | 0 W/m² | - |
| 1787967310 | 13.33° C | 89% | - | 0 mm | - | 0 W/m² | - |
| 1787966710 | 13.33° C | 87% | - | 0.25 mm | - | 0 W/m² | - |
| 1787965883 | 13.33° C | 87% | - | 0.25 mm | - | 0 W/m² | - |
| 1787964910 | 14.44° C | 79% | - | 0.25 mm | - | 0 W/m² | - |
| 1787964083 | 15° C | 72% | - | 0.25 mm | - | 0 W/m² | - |
| 1787963710 | 15.56° C | 68% | - | 0.25 mm | - | 0 W/m² | - |
| 1787963109 | 15° C | 69% | - | 0.25 mm | - | 0 W/m² | - |
| 1787962282 | 15.56° C | 66% | - | 0 mm | - | 0 W/m² | - |
| 1787961909 | 16.67° C | 61% | - | 0 mm | - | 0 W/m² | - |
| 1787961310 | 17.22° C | 52% | - | 0 mm | - | 0 W/m² | - |
| 1787960483 | 17.22° C | 55% | - | 0 mm | - | 0 W/m² | - |
| 1787960110 | 17.78° C | 57% | - | 0 mm | - | 0 W/m² | - |
| 1787959509 | 17.78° C | 56% | - | 0 mm | - | 0 W/m² | - |
| 1787958910 | 18.89° C | 60% | - | 0 mm | - | 0 W/m² | - |
| 1787958310 | 19.44° C | 59% | - | 0 mm | - | 0 W/m² | - |
| 1787957710 | 19.44° C | 58% | - | 0 mm | - | 0 W/m² | - |
| 1787956883 | 20° C | 58% | - | 0 mm | - | 0 W/m² | - |
| 1787956510 | 20.56° C | 59% | - | 0 mm | - | 0 W/m² | - |
| 1787955910 | 20.56° C | 63% | - | 0 mm | - | 0 W/m² | - |
| 1787955083 | 20.56° C | 66% | - | 0 mm | - | 0 W/m² | - |
| 1787954709 | 20.56° C | 65% | - | 0 mm | - | 0 W/m² | - |
* Rain latest hour (hover to see other rain measurements)
** Current wind speed in m/s (hover to see current wind gust speed)